Home   Weather   Feira de Santana   Past weeks

Flag for Brazil Past Weather in Feira de Santana, Bahia, Brazil — Yesterday and Last 2 Weeks

Now
84 °F

Passing clouds.


Feels Like: 90 °F
Forecast: 71 / 88 °F
Wind: 8 mph from Southeast

Location: Salvador Aeroporto

Current Time: Apr 28, 2017 at 3:16:49 pm

Latest Report: Apr 28, 2017 at 2:00 pm


Visibility: N/A

Pressure: 29.95 "Hg

Humidity: 66%

Dew Point: 72 °F

Location of Feira de SantanaLocation

Past Weather in Feira de Santana — Graph

°F

Feira de Santana Temperature Yesterday

Maximum temperature yesterday: 84 °F (at 12:00 pm)
Minimum temperature yesterday: 73 °F (at 6:00 am)
Average temperature yesterday: 80 °F

High & Low Weather Summary for the Past Weeks

 TemperatureHumidityPressure
High86 °F (Apr 15, 12:00 pm)100% (Apr 14, 7:00 pm)30.04 "Hg (Apr 14, 7:00 pm)
Low39 °F (Apr 14, 7:00 pm)55% (Apr 20, 12:00 pm)29.86 "Hg (Apr 17, 2:00 pm)
Average80 °F77%29.94 "Hg
* Reported Apr 13 2:00 pm — Apr 28 2:00 pm, Feira de Santana, Weather by CustomWeather, © 2017

Note: Actual official high and low records may vary slightly from our data, if they occured in-between our weather recording intervals... More about our weather records

Advertising

Feira de Santana Weather History for the Previous 24 Hours

Scroll right to see more
 ConditionsComfort  
Time TempWeatherWind HumidityBarometerVisibility
2:00 pm
Fri, Apr 28
84 °FPassing clouds.8 mph66%29.95 "HgN/A
1:00 pm84 °FScattered clouds.9 mph66%29.98 "HgN/A
12:00 pm86 °FScattered clouds.10 mph62%29.98 "HgN/A
11:00 am86 °FScattered clouds.10 mph66%30.01 "HgN/A
10:00 am86 °FScattered clouds.12 mph62%30.04 "HgN/A
9:00 am84 °FScattered clouds.9 mph70%30.01 "HgN/A
8:00 am82 °FScattered clouds.8 mph74%30.01 "HgN/A
7:00 am77 °FScattered clouds.2 mph94%29.98 "HgN/A
6:00 am75 °FScattered clouds.2 mph94%29.98 "HgN/A
5:00 am75 °FPassing clouds.2 mph94%29.95 "HgN/A
4:00 am75 °FPassing clouds.2 mph94%29.95 "HgN/A
3:00 am75 °FPassing clouds.2 mph94%29.95 "HgN/A
2:00 am77 °FPassing clouds.1 mph89%29.95 "HgN/A
1:00 am77 °FPassing clouds.1 mph89%29.95 "HgN/A
12:00 am77 °FPassing clouds.5 mph89%29.95 "HgN/A
11:00 pm
Thu, Apr 27
77 °FPassing clouds.7 mph94%29.95 "HgN/A
10:00 pm79 °FPassing clouds.8 mph89%29.95 "Hg5 mi
9:00 pm77 °FLight rain. Fog.8 mph94%29.95 "Hg3 mi
8:00 pm79 °FPassing clouds.3 mph84%29.95 "HgN/A
7:00 pm79 °FScattered showers. Passing clouds.8 mph84%N/A5 mi
6:00 pm81 °FPassing clouds.8 mph79%29.92 "HgN/A
5:00 pm82 °FScattered clouds.9 mph74%29.92 "HgN/A
4:00 pm82 °FPassing clouds.12 mph74%29.89 "HgN/A
3:00 pm84 °FScattered clouds.10 mph70%29.89 "HgN/A
Weather by CustomWeather, © 2017

See weather overviewHow to use our weather pages